CW9259 Weather Reports


Display with metric or nautical units.
time (UTC)temp
F
wind
direction
speed
MPH
gust
MPH
rain 1hr
in
rain 24hr
in
rain mn
in
humidity
%
barometer
mb
20260504090124 61 97 3.0 6.0 0.00 0.00 0.00 62 1015.6
20260504081603 59 75 2.0 4.0 0.00 0.00 0.00 64 1015.3
20260504080140 58 103 0.0 1.0 0.00 0.00 0.00 69 1015.3
20260504070133 56 95 0.0 0.0 0.00 0.00 0.00 75 1014.8
20260504060125 54 98 1.0 3.0 0.00 0.00 0.00 85 1014.3
20260504050121 53 325 1.0 2.0 0.00 0.00 0.00 86 1014.0
20260504044557 53 321 0.0 0.0 0.00 0.00 0.00 85 1013.9
20260504043128 53 321 0.0 2.0 0.00 0.00 0.00 84 1013.7
20260504041558 53 321 0.0 3.0 0.00 0.00 0.00 84 1013.6
20260504040134 53 334 3.0 4.0 0.00 0.00 0.00 84 1013.5
20260504034558 53 312 0.0 2.0 0.00 0.00 0.00 84 1013.7
20260504033132 52 337 3.0 4.0 0.00 0.00 0.00 85 1013.6
20260504031601 52 304 0.0 0.0 0.00 0.00 0.00 85 1013.7
20260504030130 53 304 0.0 0.0 0.00 0.00 0.00 84 1013.6
20260504024559 53 268 0.0 4.0 0.00 0.00 0.00 84 1013.6
20260504023140 53 321 2.0 4.0 0.00 0.00 0.00 84 1013.6
20260504021559 53 355 0.0 2.0 0.00 0.00 0.00 83 1013.9
20260504020126 54 344 1.0 3.0 0.00 0.00 0.00 82 1013.9
20260504014607 54 319 3.0 5.0 0.00 0.00 0.00 81 1013.7
20260504013132 55 331 1.0 2.0 0.00 0.00 0.00 80 1013.9
20260504011559 55 332 2.0 3.0 0.00 0.00 0.00 80 1014.0
20260504010141 55 198 1.0 3.0 0.00 0.00 0.00 80 1014.2
20260504004559 55 167 1.0 3.0 0.00 0.00 0.00 80 1014.2
20260504003130 56 209 0.0 2.0 0.00 0.00 0.00 78 1014.0
20260504001602 57 271 0.0 6.0 0.00 0.00 0.00 76 1013.9
20260504000144 57 294 4.0 5.0 0.00 0.00 0.00 76 1014.1
20260503234558 56 313 3.0 5.0 0.00 0.00 0.00 77 1014.2
20260503233129 56 332 2.0 5.0 0.00 0.00 0.00 79 1014.4
20260503231558 55 345 2.0 4.0 0.00 0.00 0.00 81 1014.5
20260503230002 55 256 1.0 4.0 0.00 0.00 0.00 81 1014.8
20260503224604 55 51 0.0 2.0 0.00 0.00 0.00 82 1014.7
20260503223121 55 51 0.0 1.0 0.00 0.00 0.00 82 1014.7
20260503221558 55 51 0.0 0.0 0.00 0.00 0.00 82 1014.7
20260503220130 55 51 0.0 0.0 0.00 0.00 0.00 81 1014.8
20260503214601 55 51 0.0 0.0 0.00 0.00 0.00 81 1014.8
20260503213139 56 51 0.0 0.0 0.00 0.00 0.00 80 1014.8
20260503211602 56 51 0.0 0.0 0.00 0.00 0.00 79 1014.7
20260503210127 56 51 0.0 2.0 0.00 0.00 0.00 79 1014.7
20260503204559 56 51 0.0 2.0 0.00 0.00 0.00 78 1014.6
20260503203133 57 51 0.0 2.0 0.00 0.00 0.00 77 1014.6
20260503201559 57 51 1.0 3.0 0.00 0.00 0.00 76 1014.6
20260503200141 58 51 1.0 2.0 0.00 0.00 0.00 76 1014.5
20260503194624 59 51 1.0 3.0 0.00 0.00 0.00 74 1014.4
20260503193130 59 51 0.0 0.0 0.00 0.00 0.00 74 1014.4
20260503191612 60 51 0.0 0.0 0.00 0.00 0.00 72 1014.3
20260503190137 61 51 0.0 1.0 0.00 0.00 0.00 71 1014.1
20260503184559 62 51 0.0 3.0 0.00 0.00 0.00 70 1014.0
20260503183124 63 51 0.0 2.0 0.00 0.00 0.00 70 1014.0
20260503181608 63 51 0.0 2.0 0.00 0.00 0.00 70 1013.9
20260503180130 64 51 0.0 2.0 0.00 0.00 0.00 68 1013.9
20260503174616 65 51 0.0 0.0 0.00 0.00 0.00 66 1013.8
20260503173134 66 51 0.0 1.0 0.00 0.00 0.00 65 1013.9
20260503171558 67 51 1.0 3.0 0.00 0.00 0.00 60 1014.0
20260503150137 70 41 3.0 5.0 0.00 0.00 0.00 53 1014.3
20260503120133 68 157 3.0 8.0 0.00 0.00 0.00 53 1016.0
20260503110142 68 164 2.0 6.0 0.00 0.00 0.00 53 1016.0